Flag for U.S.A. Weather past 2 weeks in Pierre, South Dakota, U.S.A.

Now
55 °F

Sunny.


Feels Like: 54 °F
Forecast: 39 / 67 °F
Wind: 5 mph from Southeast

Location: Pierre Regional Airport

Current Time: Apr 26, 2015 at 9:30:20 PM

Latest Report: Apr 26, 2015 at 8:53 PM


Visibility: 10 mi

Pressure: 30.07 "Hg

Humidity: 42%

Dew point: 32 °F

Location of PierreLocation

Historic Weather in Pierre — Graph

°F

Pierre temperature yesterday

Maximum temperature yesterday: 59 °F (at 5:53 PM)
Minimum temperature yesterday: 45 °F (at 7:53 AM)
Average temperature yesterday: 50 °F

Past Weeks' High & Low Weather Summary

 TemperatureHumidityPressure
High80 °F (Apr 14, 2:53 PM)100% (Apr 25, 11:53 AM)30.21 "Hg (Apr 25, 11:53 AM)
Low19 °F (Apr 22, 6:53 AM)11% (Apr 14, 4:53 PM)29.44 "Hg (Apr 12, 5:53 AM)
Average52 °F52%29.89 "Hg
* Reported Apr 11 7:53 PM — Apr 26 7:53 PM, Pierre, Weather by CustomWeather, © 2015

Note: Actual official high and low records may vary slightly from our data, if they occured in-between our weather recording intervals... More about our weather records

Advertising

Pierre weather history for previous 24 hours

 ConditionsComfort  
Time TempWeatherWind HumidityBarometerVisibility
7:53 PM
Sun, Apr 26
59 °FSunny.7 mph39%30.04 "Hg10 mi
6:53 PM63 °FSunny.12 mph34%30.03 "Hg10 mi
5:53 PM62 °FSunny.7 mph39%30.03 "Hg10 mi
4:53 PM62 °FSunny.9 mph41%30.03 "Hg10 mi
3:53 PM62 °FSunny.13 mph43%30.03 "Hg10 mi
2:53 PM62 °FScattered clouds.15 mph44%30.02 "Hg10 mi
1:53 PM61 °FScattered clouds.13 mph48%30.02 "Hg10 mi
12:53 PM61 °FScattered clouds.16 mph50%30.02 "Hg10 mi
11:53 AM58 °FBroken clouds.9 mph58%30.02 "Hg10 mi
10:53 AM56 °FPartly sunny.13 mph62%30.02 "Hg9 mi
9:53 AM53 °FSunny.14 mph69%30.01 "Hg9 mi
8:53 AM48 °FPassing clouds.12 mph80%30.01 "Hg7 mi
7:53 AM48 °FMostly cloudy.10 mph80%29.99 "Hg7 mi
6:53 AM48 °FOvercast.10 mph80%29.97 "Hg7 mi
5:53 AM48 °FMostly cloudy.13 mph80%29.94 "Hg9 mi
4:53 AM50 °FOvercast.12 mph74%29.94 "Hg9 mi
3:53 AM50 °FMostly cloudy.12 mph77%29.93 "Hg10 mi
2:53 AM51 °FOvercast.13 mph74%29.91 "Hg10 mi
1:53 AM52 °FOvercast.12 mph75%29.90 "Hg10 mi
12:53 AM53 °FOvercast.8 mph74%29.89 "Hg9 mi
11:53 PM
Sat, Apr 25
53 °FOvercast.7 mph77%29.88 "Hg8 mi
10:53 PM52 °FOvercast.8 mph80%29.89 "Hg8 mi
9:53 PM53 °FPassing clouds.10 mph77%29.85 "Hg10 mi
Weather by CustomWeather, © 2015

See weather overviewHow to use our weather pages